Showing default

MARS-1, 68830

Orbit data source: Space-Track

MARS-1, 68830 is an American payload satellite in SSO that was launched on Mon, 30 Mar 2026 UTC via an FALCON 9 launch vehicle from the Air Force Western Test Range (AFWTR). Payload-class satellites include a variety of spacecraft equipped with specific instruments for various scientific and technological missions. These include communications satellites like Starlink; space stations such as the ISS; scientific satellites like the Hubble; Earth observation satellites from companies like Planet Labs, Umbra, and HawkEye 360; GPS; miniature CubeSats for education and research; and military/defense satellites.

Loading next visibility...
Identifier
68830, 2026-067CW
Orbit
SSO
Country
Flag of USUS
Related business
Manufacturer
LUOUT
Mission
Operational spacecraft
Bus & Motor
CUBESAT 3U, Unknown motor
Mass
~5 kg wet, ~5 kg dry
Launch date (UTC)
2026-03-30 (3 months ago)
Launch vehicle
FALCON 9
Launch site
Air Force Western Test Range (AFWTR)
Object type
Payload
Rocket body
Debris
Shape & HBR
Unknown shape, 14.5 m
Radar Cross Section
Medium (>0.1 m² and <1 m²)

Expand to show TLE details & history
Last TLE update: 12 hours ago

TLE from 12 hours ago
0 MARS-1
1 68830U 26067CW  26193.88413758  .00004274  00000-0  20529-3 0  9999
2 68830  97.4531 152.0100 0003862  51.3937 308.7643 15.19368674 56396
Epoch: 2026-07-12T21:13Z
TLE epoch observation values (Epoch: 2026-07-12T21:13:09.486Z)
Latitude
-0.00005°
Longitude
-97.05612°
Altitude
509.171 km
Speed
7.61 km/s
True Right ascension
10h 08m 02s
True Declination
0° 00' 00"
Sunlit
Object was in daylight at epoch
Visualization orbit readout
Latitude
Unknown
Longitude
Unknown
Altitude
Unknown
Speed
Unknown
Apparent Right ascension
Unknown
Apparent Declination
Unknown
Sunlit
N/A
Visualization observer readout
Local Sidereal Time
22:01:38
Azimuth
Unknown
Elevation
Unknown
Doppler factor
Unknown
Orbital elements
Apogee altitude
507.374 km
Perigee altitude
502.058 km
Semi-major axis
6,882.853 km
Eccentricity
0.00039
Inclination
97.4531°
RAAN
152.01°
Arg. of periapsis
51.3937°
True anomaly
308.72978°
Mean anomaly
308.7643°
Eccentric anomaly
308.74704°
Mean motion
3.80093 °/min
Orbital period
94.71 mins
BSTAR
0.00020529
Loading maneuver chart data...
Computing Atmospheric mass density...
Loading historical data...
Loading historical data...
Loading historical data...
Loading historical data...
Loading historical data...
Loading historical data...
Loading historical data...

Documentation

Showing up to 5 results
|